Regional Weather Roundup
Issued by NWS

Home | Current Version | Previous Version | Graphics & Text | Print | Product List | Glossary Off
Versions: 1 2 3 4 5 6 7 8 9 10 11 12 13 14 15 16 17 18 19 20 21 22 23 24 25 26 27 28 29 30 31 32 33 34 35 36 37 38 39 40 41 42 43 44 45 46 47 48 49 50

000
ASUS45 KCYS 290310
RWRWY

WYOMING REGIONAL WEATHER ROUNDUP
NATIONAL WEATHER SERVICE CHEYENNE WY
900 PM MDT SAT MAR 28 2015

NOTE:  "FAIR" INDICATES FEW OR NO CLOUDS BELOW 12,000 FEET
WITH NO SIGNIFICANT WEATHER AND/OR OBSTRUCTIONS TO VISIBILITY.

WYZ001-290400-
YELLOWSTONE NATIONAL PARK

CITY           SKY/WX    TMP DP  RH WIND       PRES   REMARKS
LK YELLOWSTONE   N/A     34  12  40 W6        30.21R WCI  29
W YELLOWSTONE  NOT AVBL

$$
WYZ002>013-054>058-071-098>099-290400-
NORTHERN WYOMING

CITY           SKY/WX    TMP DP  RH WIND       PRES   REMARKS
JACKSON        FAIR      45  25  45 W13G24    30.17R
CODY           FAIR      54  10  17 NW22G36   30.03R
GREYBULL       FAIR      54  12  18 N29G44    29.99R
WORLAND        FAIR      55  13  18 N28G39    29.96R
SHERIDAN       FAIR      53  14  21 NW36G45   29.94R
BUFFALO        FAIR      50  13  22 N33G48    29.93R
GILLETTE       CLOUDY    52  13  21 NW22G37   29.91R
HULETT         CLOUDY    54  16  22 NW21G28   29.90R
NEWCASTLE      FAIR      54  32  43 NW23G36   29.85R

$$
WYZ014>020-022>026-101>103-290400-
CENTRAL WYOMING

CITY           SKY/WX    TMP DP  RH WIND       PRES   REMARKS
BIG PINEY      FAIR      42  20  41 NE10      30.17R
PINEDALE       FAIR      37  23  56 NW3       30.19R
DUBOIS         FAIR      43  18  36 NW18G30   30.12R
LANDER         FAIR      57  10  15 N22G31    30.02R
RIVERTON       FAIR      55  15  20 W22       30.00R
CASPER         FAIR      57  16  20 W22G30    29.94R
DOUGLAS        MOCLDY    55  31  39 N17       29.93R

$$
WYZ021-027>030-104>119-290400-
SOUTHERN WYOMING

CITY           SKY/WX    TMP DP  RH WIND       PRES   REMARKS
EVANSTON       FAIR      49  23  36 W8G21     30.24R
KEMMERER       FAIR      43  23  45 W14       30.21R
ROCK SPRINGS   FAIR      50  19  29 W14       30.16R
DIXON          FAIR      56  13  18 W12       30.14S
RAWLINS        FAIR      54  16  22 W29G37    30.07R
SARATOGA       FAIR      52  10  19 W21       30.10R
LARAMIE        FAIR      53  16  23 W22G31    30.05R
CHEYENNE       FAIR      60  25  26 W22G30    29.96R
TORRINGTON     FAIR      68  11  11 W13       29.81R
PINE BLUFFS    FAIR      63  28  27 W17       29.92R

$$


USA.gov is the U.S. government's official web portal to all federal, state and local government web resources and services.